Home   Weather   Lowell   Past weeks
Flag for USA

Past Weather in Lowell, Massachusetts, USA — Yesterday and Last 2 Weeks

Now
54 °F

Sunny.


Feels Like: 51 °F
Forecast: 58 / 38 °F
Wind: 12 mph from Northwest

Location: Hanscom Field

Current Time: Oct 19, 2019 at 11:30:39 am

Latest Report: Oct 19, 2019 at 10:51 am


Visibility: 10 mi

Pressure: 30.05 "Hg

Humidity: 49%

Dew Point: 35 °F

Location of LowellLocation

Past Weather in Lowell — Graph

°F

Lowell Temperature Yesterday

Maximum temperature yesterday: 60 °F (at 2:51 pm)
Minimum temperature yesterday: 43 °F (at 11:51 pm)
Average temperature yesterday: 53 °F

High & Low Weather Summary for the Past Weeks

 TemperatureHumidityPressure
High80 °F (Oct 7, 1:58 pm)90% (Oct 13, 11:12 pm)30.48 "Hg (Oct 13, 11:12 pm)
Low34 °F (Oct 5, 6:51 am)28% (Oct 5, 3:51 pm)28.78 "Hg (Oct 17, 3:43 am)
Average55 °F69%30.02 "Hg
* Reported Oct 4 10:13 am — Oct 19 9:51 am, Lowell. Weather by CustomWeather, © 2019

Note: Actual official high and low records may vary slightly from our data, if they occured in-between our weather recording intervals... More about our weather records

Advertising

Lowell Weather History for the Previous 24 Hours

Scroll right to see more
 ConditionsComfort  
Time TempWeatherWind HumidityBarometerVisibility
9:51 am
Sat, Oct 19
45 °FSunny.9 mph71%30.04 "Hg10 mi
8:51 am44 °FSunny.9 mph73%30.04 "Hg10 mi
7:51 am38 °FSunny.6 mph79%30.04 "Hg10 mi
6:51 am37 °FClear.3 mph79%30.02 "Hg10 mi
5:51 am38 °FClear.3 mph79%30.01 "Hg10 mi
4:51 am38 °FClear.3 mph76%30.00 "Hg10 mi
3:51 am39 °FClear.5 mph76%29.99 "Hg10 mi
2:51 am41 °FClear.6 mph74%29.98 "Hg10 mi
1:51 am42 °FClear.8 mph73%29.98 "Hg10 mi
12:51 am43 °FClear.5 mph74%29.96 "Hg10 mi
11:51 pm
Fri, Oct 18
43 °FClear.6 mph74%29.95 "Hg10 mi
10:51 pm45 °FClear.No wind68%29.95 "Hg10 mi
9:51 pm48 °FClear.6 mph61%29.93 "Hg10 mi
8:51 pm49 °FPassing clouds.7 mph61%29.91 "Hg10 mi
7:51 pm52 °FClear.14 mph55%29.89 "Hg10 mi
6:51 pm51 °FPassing clouds.8 mph56%29.86 "Hg10 mi
5:51 pm55 °FScattered clouds.9 mph49%29.83 "Hg10 mi
4:51 pm58 °FScattered clouds.18 mph44%29.80 "Hg10 mi
3:51 pm60 °FPassing clouds.21 mph44%29.78 "Hg10 mi
2:51 pm60 °FPartly sunny.17 mph44%29.76 "Hg10 mi
1:51 pm59 °FPartly sunny.16 mph46%29.75 "Hg10 mi
12:51 pm58 °FPartly sunny.16 mph47%29.75 "Hg10 mi
11:51 am58 °FPartly sunny.21 mph50%29.75 "Hg10 mi
Weather by CustomWeather, © 2019

See weather overview